Time,TemperatureF,DewpointF,PressureIn,WindDirection,WindDirectionDegrees,WindSpeedMPH,WindSpeedGustMPH,Humidity,HourlyPrecipIn,Conditions,Clouds,dailyrainin,SoftwareType,DateUTC
2013-08-13 00:00:00,55.7,53.7,29.90,ENE,68,0.0,0.0,93,0.00,,,0.00,WeatherCatV1.15B25,2013-08-13 04:00:00,
2013-08-13 00:05:00,55.7,53.7,29.90,ENE,68,0.0,0.0,93,0.00,,,0.00,WeatherCatV1.15B25,2013-08-13 04:05:00,
2013-08-13 00:10:00,55.7,53.7,29.90,ENE,68,0.0,0.0,93,0.00,,,0.00,WeatherCatV1.15B25,2013-08-13 04:10:00,
2013-08-13 00:15:00,55.9,53.9,29.90,ENE,68,0.0,0.0,93,0.00,,,0.00,WeatherCatV1.15B25,2013-08-13 04:15:00,
2013-08-13 00:20:00,55.9,53.9,29.90,ENE,68,0.0,0.0,93,0.00,,,0.00,WeatherCatV1.15B25,2013-08-13 04:20:00,
2013-08-13 00:25:00,55.9,53.9,29.90,ENE,68,0.0,0.0,93,0.00,,,0.00,WeatherCatV1.15B25,2013-08-13 04:25:00,
2013-08-13 00:30:00,56.1,54.1,29.88,ENE,68,0.0,0.0,93,0.00,,,0.00,WeatherCatV1.15B25,2013-08-13 04:30:00,
2013-08-13 00:35:00,56.1,54.1,29.88,ENE,68,0.0,0.0,93,0.00,,,0.00,WeatherCatV1.15B25,2013-08-13 04:35:00,
2013-08-13 00:40:00,56.1,54.1,29.88,ENE,68,0.0,0.0,93,0.00,,,0.00,WeatherCatV1.15B25,2013-08-13 04:40:00,
2013-08-13 00:45:00,56.2,54.2,29.88,ENE,68,0.0,0.0,93,0.00,,,0.00,WeatherCatV1.15B25,2013-08-13 04:45:00,
2013-08-13 00:50:00,56.2,54.2,29.88,ENE,68,0.0,0.0,93,0.00,,,0.00,WeatherCatV1.15B25,2013-08-13 04:50:00,
2013-08-13 00:55:00,56.2,54.2,29.88,ENE,68,0.0,0.0,93,0.00,,,0.00,WeatherCatV1.15B25,2013-08-13 04:55:00,
2013-08-13 01:00:00,56.3,54.3,29.88,ENE,68,0.0,0.0,93,0.00,,,0.00,WeatherCatV1.15B25,2013-08-13 05:00:00,
2013-08-13 01:05:00,56.3,54.3,29.88,ENE,68,0.0,0.0,93,0.00,,,0.00,WeatherCatV1.15B25,2013-08-13 05:05:00,
2013-08-13 01:10:00,56.3,54.3,29.88,ENE,68,0.0,0.0,93,0.00,,,0.00,WeatherCatV1.15B25,2013-08-13 05:10:00,
2013-08-13 01:15:00,56.3,54.3,29.88,ENE,68,0.0,0.0,93,0.00,,,0.00,WeatherCatV1.15B25,2013-08-13 05:15:00,
2013-08-13 01:20:00,56.3,54.3,29.88,ENE,68,0.0,0.0,93,0.00,,,0.00,WeatherCatV1.15B25,2013-08-13 05:20:00,
2013-08-13 01:25:00,56.3,54.3,29.88,ENE,68,0.0,0.0,93,0.00,,,0.00,WeatherCatV1.15B25,2013-08-13 05:25:00,
2013-08-13 01:30:00,56.2,54.2,29.87,ENE,68,0.0,0.0,93,0.00,,,0.00,WeatherCatV1.15B25,2013-08-13 05:30:00,
2013-08-13 01:35:00,56.2,54.2,29.87,ENE,68,0.0,0.0,93,0.00,,,0.00,WeatherCatV1.15B25,2013-08-13 05:35:00,
2013-08-13 01:40:00,56.2,54.2,29.87,ENE,68,0.0,0.0,93,0.00,,,0.00,WeatherCatV1.15B25,2013-08-13 05:40:00,
2013-08-13 01:45:00,56.3,54.6,29.87,ENE,68,0.0,0.0,94,0.00,,,0.00,WeatherCatV1.15B25,2013-08-13 05:45:00,
2013-08-13 01:50:00,56.3,54.6,29.87,ENE,68,0.0,0.0,94,0.00,,,0.00,WeatherCatV1.15B25,2013-08-13 05:50:00,
2013-08-13 01:55:00,56.4,54.7,29.86,ENE,68,0.0,1.0,94,0.00,,,0.00,WeatherCatV1.15B25,2013-08-13 05:55:00,
2013-08-13 02:00:00,56.4,54.7,29.86,ENE,68,0.0,1.0,94,0.00,,,0.00,WeatherCatV1.15B25,2013-08-13 06:00:00,
2013-08-13 02:05:00,56.4,54.7,29.86,ENE,68,0.0,1.0,94,0.00,,,0.00,WeatherCatV1.15B25,2013-08-13 06:05:00,
2013-08-13 02:10:00,56.1,54.1,29.86,ENE,68,0.0,0.0,93,0.00,,,0.00,WeatherCatV1.15B25,2013-08-13 06:10:00,
2013-08-13 02:15:00,56.1,54.1,29.86,ENE,68,0.0,0.0,93,0.00,,,0.00,WeatherCatV1.15B25,2013-08-13 06:15:00,
2013-08-13 02:20:00,56.1,54.1,29.86,ENE,68,0.0,0.0,93,0.00,,,0.00,WeatherCatV1.15B25,2013-08-13 06:20:00,
2013-08-13 02:25:00,55.6,53.6,29.86,ENE,68,0.0,0.0,93,0.00,,,0.00,WeatherCatV1.15B25,2013-08-13 06:25:00,
2013-08-13 02:30:00,55.6,53.6,29.86,ENE,68,0.0,0.0,93,0.00,,,0.00,WeatherCatV1.15B25,2013-08-13 06:30:00,
2013-08-13 02:35:00,55.6,53.6,29.86,ENE,68,0.0,0.0,93,0.00,,,0.00,WeatherCatV1.15B25,2013-08-13 06:35:00,
2013-08-13 02:40:00,55.1,53.1,29.86,ENE,68,0.0,0.0,93,0.00,,,0.00,WeatherCatV1.15B25,2013-08-13 06:40:00,
2013-08-13 02:45:00,55.1,53.1,29.86,ENE,68,0.0,0.0,93,0.00,,,0.00,WeatherCatV1.15B25,2013-08-13 06:45:00,
2013-08-13 02:50:00,55.1,53.1,29.86,ENE,68,0.0,0.0,93,0.00,,,0.00,WeatherCatV1.15B25,2013-08-13 06:50:00,
2013-08-13 02:55:00,54.9,53.2,29.86,ENE,68,0.0,0.0,94,0.00,,,0.00,WeatherCatV1.15B25,2013-08-13 06:55:00,
2013-08-13 03:00:00,54.9,53.2,29.86,ENE,68,0.0,0.0,94,0.00,,,0.00,WeatherCatV1.15B25,2013-08-13 07:00:00,
2013-08-13 03:05:00,54.9,53.2,29.86,ENE,68,0.0,0.0,94,0.00,,,0.00,WeatherCatV1.15B25,2013-08-13 07:05:00,
2013-08-13 03:10:00,54.8,53.1,29.85,ENE,68,0.0,0.0,94,0.00,,,0.00,WeatherCatV1.15B25,2013-08-13 07:10:00,
2013-08-13 03:15:00,54.8,53.1,29.85,ENE,68,0.0,0.0,94,0.00,,,0.00,WeatherCatV1.15B25,2013-08-13 07:15:00,
2013-08-13 03:20:00,54.8,53.1,29.85,ENE,68,0.0,0.0,94,0.00,,,0.00,WeatherCatV1.15B25,2013-08-13 07:20:00,
2013-08-13 03:25:00,54.8,53.1,29.85,ENE,68,0.0,0.0,94,0.00,,,0.00,WeatherCatV1.15B25,2013-08-13 07:25:00,
2013-08-13 03:30:00,54.8,53.1,29.85,ENE,68,0.0,0.0,94,0.00,,,0.00,WeatherCatV1.15B25,2013-08-13 07:30:00,
2013-08-13 03:35:00,54.8,53.1,29.85,ENE,68,0.0,0.0,94,0.00,,,0.00,WeatherCatV1.15B25,2013-08-13 07:35:00,
2013-08-13 03:40:00,54.5,52.8,29.85,ENE,68,0.0,0.0,94,0.00,,,0.00,WeatherCatV1.15B25,2013-08-13 07:40:00,
2013-08-13 03:45:00,54.5,52.8,29.85,ENE,68,0.0,0.0,94,0.00,,,0.00,WeatherCatV1.15B25,2013-08-13 07:45:00,
2013-08-13 03:50:00,54.5,52.8,29.85,ENE,68,0.0,0.0,94,0.00,,,0.00,WeatherCatV1.15B25,2013-08-13 07:50:00,
2013-08-13 03:55:00,54.4,52.7,29.84,ENE,68,0.0,0.0,94,0.00,,,0.00,WeatherCatV1.15B25,2013-08-13 07:55:00,
2013-08-13 04:00:00,54.4,52.7,29.84,ENE,68,0.0,0.0,94,0.00,,,0.00,WeatherCatV1.15B25,2013-08-13 08:00:00,
2013-08-13 04:05:00,54.4,52.7,29.84,ENE,68,0.0,0.0,94,0.00,,,0.00,WeatherCatV1.15B25,2013-08-13 08:05:00,
2013-08-13 04:10:00,54.2,52.5,29.84,ENE,68,0.0,0.0,94,0.00,,,0.00,WeatherCatV1.15B25,2013-08-13 08:10:00,
2013-08-13 04:15:00,54.2,52.5,29.84,ENE,68,0.0,0.0,94,0.00,,,0.00,WeatherCatV1.15B25,2013-08-13 08:15:00,
2013-08-13 04:20:00,54.2,52.5,29.84,ENE,68,0.0,0.0,94,0.00,,,0.00,WeatherCatV1.15B25,2013-08-13 08:20:00,
2013-08-13 04:25:00,54.1,52.4,29.84,ENE,68,0.0,0.0,94,0.00,,,0.00,WeatherCatV1.15B25,2013-08-13 08:25:00,
2013-08-13 04:30:00,54.1,52.4,29.84,ENE,68,0.0,0.0,94,0.00,,,0.00,WeatherCatV1.15B25,2013-08-13 08:30:00,
2013-08-13 04:35:00,54.1,52.4,29.84,ENE,68,0.0,0.0,94,0.00,,,0.00,WeatherCatV1.15B25,2013-08-13 08:35:00,
2013-08-13 04:40:00,54.3,52.9,29.83,ENE,68,0.0,0.0,95,0.00,,,0.00,WeatherCatV1.15B25,2013-08-13 08:40:00,
2013-08-13 04:45:00,54.3,52.9,29.83,ENE,68,0.0,0.0,95,0.00,,,0.00,WeatherCatV1.15B25,2013-08-13 08:45:00,
2013-08-13 04:50:00,54.3,52.9,29.83,ENE,68,0.0,0.0,95,0.00,,,0.00,WeatherCatV1.15B25,2013-08-13 08:50:00,
2013-08-13 04:55:00,54.8,53.4,29.83,ENE,68,0.0,0.0,95,0.00,,,0.00,WeatherCatV1.15B25,2013-08-13 08:55:00,
2013-08-13 05:00:00,54.8,53.4,29.83,ENE,68,0.0,0.0,95,0.00,,,0.00,WeatherCatV1.15B25,2013-08-13 09:00:00,
2013-08-13 05:05:00,54.8,53.4,29.83,ENE,68,0.0,0.0,95,0.00,,,0.00,WeatherCatV1.15B25,2013-08-13 09:05:00,
2013-08-13 05:10:00,55.0,53.6,29.82,ENE,68,0.0,0.0,95,0.00,,,0.00,WeatherCatV1.15B25,2013-08-13 09:10:00,
2013-08-13 05:15:00,55.0,53.6,29.82,ENE,68,0.0,0.0,95,0.00,,,0.00,WeatherCatV1.15B25,2013-08-13 09:15:00,
2013-08-13 05:20:00,55.0,53.6,29.82,ENE,68,0.0,0.0,95,0.00,,,0.00,WeatherCatV1.15B25,2013-08-13 09:20:00,
2013-08-13 05:25:00,55.2,53.8,29.83,ENE,68,0.0,0.0,95,0.00,,,0.00,WeatherCatV1.15B25,2013-08-13 09:25:00,
2013-08-13 05:30:00,55.2,53.8,29.83,ENE,68,0.0,0.0,95,0.00,,,0.00,WeatherCatV1.15B25,2013-08-13 09:30:00,
2013-08-13 05:35:00,55.2,53.8,29.83,ENE,68,0.0,0.0,95,0.00,,,0.00,WeatherCatV1.15B25,2013-08-13 09:35:00,
2013-08-13 05:40:00,55.3,53.9,29.83,ENE,68,0.0,0.0,95,0.00,,,0.00,WeatherCatV1.15B25,2013-08-13 09:40:00,
2013-08-13 05:45:00,55.3,53.9,29.83,ENE,68,0.0,0.0,95,0.00,,,0.00,WeatherCatV1.15B25,2013-08-13 09:45:00,
2013-08-13 05:50:00,55.3,53.9,29.83,ENE,68,0.0,0.0,95,0.00,,,0.00,WeatherCatV1.15B25,2013-08-13 09:50:00,
2013-08-13 05:55:00,55.3,53.9,29.83,ENE,68,0.0,0.0,95,0.00,,,0.00,WeatherCatV1.15B25,2013-08-13 09:55:00,
2013-08-13 06:00:00,55.3,53.9,29.83,ENE,68,0.0,0.0,95,0.00,,,0.00,WeatherCatV1.15B25,2013-08-13 10:00:00,
2013-08-13 06:05:00,55.3,53.9,29.83,ENE,68,0.0,0.0,95,0.00,,,0.00,WeatherCatV1.15B25,2013-08-13 10:05:00,
2013-08-13 06:10:00,55.0,53.6,29.83,ENE,68,0.0,0.0,95,0.00,,,0.00,WeatherCatV1.15B25,2013-08-13 10:10:00,
2013-08-13 06:15:00,55.0,53.6,29.83,ENE,68,0.0,0.0,95,0.00,,,0.00,WeatherCatV1.15B25,2013-08-13 10:15:00,
2013-08-13 06:20:00,55.0,53.6,29.83,ENE,68,0.0,0.0,95,0.00,,,0.00,WeatherCatV1.15B25,2013-08-13 10:20:00,
2013-08-13 06:25:00,54.9,53.5,29.83,ENE,68,0.0,0.0,95,0.00,,,0.00,WeatherCatV1.15B25,2013-08-13 10:25:00,
2013-08-13 06:30:00,54.9,53.5,29.83,ENE,68,0.0,0.0,95,0.00,,,0.00,WeatherCatV1.15B25,2013-08-13 10:30:00,
2013-08-13 06:35:00,54.9,53.5,29.83,ENE,68,0.0,0.0,95,0.00,,,0.00,WeatherCatV1.15B25,2013-08-13 10:35:00,
2013-08-13 06:40:00,54.7,53.3,29.83,ENE,68,0.0,0.0,95,0.00,,,0.00,WeatherCatV1.15B25,2013-08-13 10:40:00,
2013-08-13 06:45:00,54.7,53.3,29.83,ENE,68,0.0,0.0,95,0.00,,,0.00,WeatherCatV1.15B25,2013-08-13 10:45:00,
2013-08-13 06:50:00,54.7,53.3,29.83,ENE,68,0.0,0.0,95,0.00,,,0.00,WeatherCatV1.15B25,2013-08-13 10:50:00,
2013-08-13 06:55:00,54.7,53.3,29.83,ENE,68,0.0,0.0,95,0.00,,,0.00,WeatherCatV1.15B25,2013-08-13 10:55:00,
2013-08-13 07:00:00,54.7,53.3,29.83,ENE,68,0.0,0.0,95,0.00,,,0.00,WeatherCatV1.15B25,2013-08-13 11:00:00,
2013-08-13 07:05:00,54.7,53.3,29.83,ENE,68,0.0,0.0,95,0.00,,,0.00,WeatherCatV1.15B25,2013-08-13 11:05:00,
2013-08-13 07:10:00,55.1,53.7,29.83,ENE,68,0.0,0.0,95,0.00,,,0.00,WeatherCatV1.15B25,2013-08-13 11:10:00,
2013-08-13 07:15:00,55.1,53.7,29.83,ENE,68,0.0,0.0,95,0.00,,,0.00,WeatherCatV1.15B25,2013-08-13 11:15:00,
2013-08-13 07:20:00,55.1,53.7,29.83,ENE,68,0.0,0.0,95,0.00,,,0.00,WeatherCatV1.15B25,2013-08-13 11:20:00,
2013-08-13 07:25:00,55.5,54.4,29.84,ENE,68,0.0,0.0,96,0.00,,,0.00,WeatherCatV1.15B25,2013-08-13 11:25:00,
2013-08-13 07:30:00,55.5,54.4,29.84,ENE,68,0.0,0.0,96,0.00,,,0.00,WeatherCatV1.15B25,2013-08-13 11:30:00,
2013-08-13 07:35:00,55.5,54.4,29.84,ENE,68,0.0,0.0,96,0.00,,,0.00,WeatherCatV1.15B25,2013-08-13 11:35:00,
2013-08-13 07:40:00,55.5,54.4,29.84,ENE,68,0.0,0.0,96,0.00,,,0.00,WeatherCatV1.15B25,2013-08-13 11:40:00,
2013-08-13 07:45:00,57.0,55.9,29.83,ENE,68,0.0,0.0,96,0.00,,,0.00,WeatherCatV1.15B25,2013-08-13 11:45:00,
2013-08-13 07:50:00,57.0,55.9,29.83,ENE,68,0.0,0.0,96,0.00,,,0.00,WeatherCatV1.15B25,2013-08-13 11:50:00,
2013-08-13 07:55:00,57.0,55.9,29.83,ENE,68,0.0,0.0,96,0.00,,,0.00,WeatherCatV1.15B25,2013-08-13 11:55:00,
2013-08-13 08:00:00,58.5,57.4,29.83,ENE,68,0.0,0.0,96,0.00,,,0.00,WeatherCatV1.15B25,2013-08-13 12:00:00,
2013-08-13 08:05:00,58.5,57.4,29.83,ENE,68,0.0,0.0,96,0.00,,,0.00,WeatherCatV1.15B25,2013-08-13 12:05:00,
2013-08-13 08:18:00,59.9,58.8,29.83,ENE,73,0.0,0.0,96,0.00,,,0.00,WeatherCatV1.15B25,2013-08-13 12:18:00,
2013-08-13 08:21:00,60.2,59.1,29.83,ENE,74,0.0,0.0,96,0.00,,,0.00,WeatherCatV1.15B25,2013-08-13 12:21:00,
2013-08-13 08:22:00,60.2,59.1,29.83,ENE,74,0.0,0.0,96,0.00,,,0.00,WeatherCatV1.15B25,2013-08-13 12:22:00,
2013-08-13 08:23:00,60.3,59.2,29.83,ENE,74,0.0,0.0,96,0.00,,,0.00,WeatherCatV1.15B25,2013-08-13 12:23:00,
2013-08-13 08:28:00,60.7,59.5,29.82,ENE,74,0.0,0.0,96,0.00,,,0.00,WeatherCatV1.15B25,2013-08-13 12:28:00,
2013-08-13 08:33:00,61.1,59.9,29.82,ENE,74,0.0,0.0,96,0.00,,,0.00,WeatherCatV1.15B25,2013-08-13 12:33:00,
2013-08-13 08:38:00,61.4,60.0,29.82,ENE,74,0.0,0.0,95,0.00,,,0.00,WeatherCatV1.15B25,2013-08-13 12:38:00,
2013-08-13 08:43:00,61.6,60.2,29.81,ENE,74,0.0,0.0,95,0.00,,,0.00,WeatherCatV1.15B25,2013-08-13 12:43:00,
2013-08-13 08:48:00,61.8,60.3,29.81,ENE,74,0.0,0.0,95,0.00,,,0.00,WeatherCatV1.15B25,2013-08-13 12:48:00,
2013-08-13 08:53:00,62.2,60.7,29.81,ENE,74,0.0,0.0,95,0.00,,,0.00,WeatherCatV1.15B25,2013-08-13 12:53:00,
2013-08-13 08:58:00,62.5,60.7,29.80,ENE,74,0.0,0.0,94,0.00,,,0.00,WeatherCatV1.15B25,2013-08-13 12:58:00,
2013-08-13 09:03:00,62.7,60.9,29.81,ENE,74,0.0,0.0,94,0.00,,,0.00,WeatherCatV1.15B25,2013-08-13 13:03:00,
2013-08-13 09:08:00,62.7,60.6,29.81,ENE,74,0.0,0.0,93,0.00,,,0.00,WeatherCatV1.15B25,2013-08-13 13:08:00,
2013-08-13 09:13:00,62.7,60.6,29.80,ENE,74,0.0,0.0,93,0.00,,,0.00,WeatherCatV1.15B25,2013-08-13 13:13:00,
2013-08-13 09:18:00,62.9,60.8,29.80,ENE,74,0.0,0.0,93,0.00,,,0.00,WeatherCatV1.15B25,2013-08-13 13:18:00,
2013-08-13 09:23:00,63.1,61.0,29.80,ENE,74,0.0,0.0,93,0.00,,,0.00,WeatherCatV1.15B25,2013-08-13 13:23:00,
2013-08-13 09:28:00,63.4,61.0,29.80,ENE,74,0.0,0.0,92,0.00,,,0.00,WeatherCatV1.15B25,2013-08-13 13:28:00,
2013-08-13 09:33:00,63.5,60.8,29.80,ENE,74,0.0,0.0,91,0.00,,,0.00,WeatherCatV1.15B25,2013-08-13 13:33:00,
2013-08-13 09:38:00,63.6,60.9,29.80,ENE,74,0.0,0.0,91,0.00,,,0.00,WeatherCatV1.15B25,2013-08-13 13:38:00,
2013-08-13 09:43:00,63.7,61.0,29.80,ENE,74,0.0,0.0,91,0.00,,,0.00,WeatherCatV1.15B25,2013-08-13 13:43:00,
2013-08-13 09:48:00,63.7,61.0,29.80,ENE,74,0.0,0.0,91,0.00,,,0.00,WeatherCatV1.15B25,2013-08-13 13:48:00,
2013-08-13 09:53:00,63.7,61.0,29.80,ENE,74,0.0,0.0,91,0.00,,,0.00,WeatherCatV1.15B25,2013-08-13 13:53:00,
2013-08-13 09:58:00,63.6,60.9,29.80,ENE,74,0.0,0.0,91,0.00,,,0.00,WeatherCatV1.15B25,2013-08-13 13:58:00,
2013-08-13 10:03:00,63.5,60.8,29.81,ENE,74,0.0,0.0,91,0.00,,,0.01,WeatherCatV1.15B25,2013-08-13 14:03:00,
2013-08-13 10:08:00,62.9,59.9,29.81,ENE,74,0.0,0.0,90,0.16,,,0.03,WeatherCatV1.15B25,2013-08-13 14:08:00,
2013-08-13 10:13:00,62.4,59.7,29.81,ENE,74,0.0,0.0,91,0.47,,,0.07,WeatherCatV1.15B25,2013-08-13 14:13:00,
2013-08-13 10:18:00,62.0,59.6,29.81,ENE,74,0.0,0.0,92,0.63,,,0.12,WeatherCatV1.15B25,2013-08-13 14:18:00,
2013-08-13 10:23:00,61.8,59.4,29.82,ENE,74,0.0,0.0,92,0.57,,,0.17,WeatherCatV1.15B25,2013-08-13 14:23:00,
2013-08-13 10:28:00,61.7,59.7,29.82,ENE,74,0.0,0.0,93,0.76,,,0.20,WeatherCatV1.15B25,2013-08-13 14:28:00,
2013-08-13 10:33:00,61.6,59.6,29.82,ENE,74,0.0,0.0,93,0.18,,,0.23,WeatherCatV1.15B25,2013-08-13 14:33:00,
2013-08-13 10:38:00,61.5,59.5,29.82,ENE,74,0.0,0.0,93,0.22,,,0.24,WeatherCatV1.15B25,2013-08-13 14:38:00,
2013-08-13 10:43:00,61.4,59.7,29.83,ENE,74,0.0,0.0,94,0.64,,,0.28,WeatherCatV1.15B25,2013-08-13 14:43:00,
2013-08-13 10:48:00,61.4,59.7,29.83,ENE,74,0.0,0.0,94,0.71,,,0.32,WeatherCatV1.15B25,2013-08-13 14:48:00,
2013-08-13 10:53:00,61.4,59.7,29.83,ENE,74,0.0,0.0,94,0.24,,,0.35,WeatherCatV1.15B25,2013-08-13 14:53:00,
2013-08-13 10:58:00,61.5,59.8,29.82,ENE,74,0.0,0.0,94,0.20,,,0.36,WeatherCatV1.15B25,2013-08-13 14:58:00,
2013-08-13 11:03:00,61.4,59.7,29.82,ENE,74,0.0,0.0,94,0.07,,,0.36,WeatherCatV1.15B25,2013-08-13 15:03:00,
2013-08-13 11:08:00,61.4,59.7,29.82,ENE,74,0.0,0.0,94,0.06,,,0.37,WeatherCatV1.15B25,2013-08-13 15:08:00,
2013-08-13 11:13:00,61.6,60.2,29.82,ENE,74,0.0,0.0,95,0.06,,,0.37,WeatherCatV1.15B25,2013-08-13 15:13:00,
2013-08-13 11:18:00,61.7,60.2,29.81,ENE,74,0.0,0.0,95,0.07,,,0.38,WeatherCatV1.15B25,2013-08-13 15:18:00,
2013-08-13 11:23:00,61.8,60.3,29.81,ENE,74,0.0,0.0,95,0.06,,,0.38,WeatherCatV1.15B25,2013-08-13 15:23:00,
2013-08-13 11:28:00,62.0,60.5,29.81,ENE,74,0.0,0.0,95,0.04,,,0.38,WeatherCatV1.15B25,2013-08-13 15:28:00,
2013-08-13 11:33:00,62.3,60.8,29.81,ENE,74,0.0,0.0,95,0.00,,,0.38,WeatherCatV1.15B25,2013-08-13 15:33:00,
2013-08-13 11:38:00,62.7,61.2,29.81,ENE,74,0.0,0.0,95,0.00,,,0.38,WeatherCatV1.15B25,2013-08-13 15:38:00,
2013-08-13 11:43:00,62.9,61.4,29.81,ENE,74,0.0,0.0,95,0.00,,,0.38,WeatherCatV1.15B25,2013-08-13 15:43:00,
2013-08-13 11:48:00,62.8,61.3,29.81,ENE,74,0.0,0.0,95,0.00,,,0.39,WeatherCatV1.15B25,2013-08-13 15:48:00,
2013-08-13 11:53:00,62.7,61.2,29.80,ENE,74,0.0,0.0,95,0.00,,,0.39,WeatherCatV1.15B25,2013-08-13 15:53:00,
2013-08-13 11:59:00,62.5,61.0,29.80,ENE,74,0.0,0.0,95,0.00,,,0.39,WeatherCatV1.15B25,2013-08-13 15:59:00,
2013-08-13 12:04:00,62.5,61.0,29.80,ENE,74,0.0,0.0,95,0.00,,,0.39,WeatherCatV1.15B25,2013-08-13 16:04:00,
2013-08-13 12:09:00,62.3,60.8,29.80,ENE,74,0.0,0.0,95,0.00,,,0.39,WeatherCatV1.15B25,2013-08-13 16:09:00,
2013-08-13 12:14:00,62.3,60.8,29.80,ENE,74,0.0,0.0,95,0.00,,,0.40,WeatherCatV1.15B25,2013-08-13 16:14:00,
2013-08-13 12:19:00,62.4,60.9,29.79,ENE,74,0.0,0.0,95,0.00,,,0.40,WeatherCatV1.15B25,2013-08-13 16:19:00,
2013-08-13 12:24:00,62.5,61.0,29.79,ENE,74,0.0,0.0,95,0.00,,,0.40,WeatherCatV1.15B25,2013-08-13 16:24:00,
2013-08-13 12:29:00,62.5,61.0,29.79,ENE,74,0.0,0.0,95,0.00,,,0.40,WeatherCatV1.15B25,2013-08-13 16:29:00,
2013-08-13 12:34:00,62.4,60.9,29.79,ENE,74,0.0,0.0,95,0.00,,,0.41,WeatherCatV1.15B25,2013-08-13 16:34:00,
2013-08-13 12:39:00,62.6,61.1,29.78,ENE,74,0.0,0.0,95,0.00,,,0.41,WeatherCatV1.15B25,2013-08-13 16:39:00,
2013-08-13 12:44:00,62.9,61.4,29.79,ENE,74,0.0,0.0,95,0.00,,,0.41,WeatherCatV1.15B25,2013-08-13 16:44:00,
2013-08-13 12:49:00,62.9,61.4,29.79,ENE,74,0.0,0.0,95,0.05,,,0.42,WeatherCatV1.15B25,2013-08-13 16:49:00,
2013-08-13 12:54:00,62.9,61.4,29.78,ENE,74,0.0,0.0,95,0.05,,,0.42,WeatherCatV1.15B25,2013-08-13 16:54:00,
2013-08-13 12:59:00,63.0,61.8,29.78,ENE,74,0.0,0.0,96,0.04,,,0.42,WeatherCatV1.15B25,2013-08-13 16:59:00,
2013-08-13 13:04:00,63.0,61.5,29.78,ENE,74,0.0,0.0,95,0.04,,,0.43,WeatherCatV1.15B25,2013-08-13 17:04:00,
2013-08-13 13:13:00,62.9,61.4,29.78,ENE,74,0.0,0.0,95,0.06,,,0.44,WeatherCatV1.15B25,2013-08-13 17:13:00,
2013-08-13 13:18:00,62.9,61.4,29.78,ENE,74,0.0,0.0,95,0.06,,,0.44,WeatherCatV1.15B25,2013-08-13 17:18:00,
2013-08-13 13:23:00,62.8,61.3,29.78,ENE,74,0.0,0.0,95,0.05,,,0.45,WeatherCatV1.15B25,2013-08-13 17:23:00,
2013-08-13 13:28:00,62.7,61.2,29.78,ENE,74,0.0,0.0,95,0.05,,,0.45,WeatherCatV1.15B25,2013-08-13 17:28:00,
2013-08-13 13:33:00,62.7,61.2,29.78,ENE,74,0.0,0.0,95,0.05,,,0.45,WeatherCatV1.15B25,2013-08-13 17:33:00,
2013-08-13 13:38:00,62.7,61.2,29.78,ENE,74,0.0,1.0,95,0.05,,,0.46,WeatherCatV1.15B25,2013-08-13 17:38:00,
2013-08-13 13:43:00,62.7,61.2,29.78,SW,232,0.0,2.0,95,0.05,,,0.46,WeatherCatV1.15B25,2013-08-13 17:43:00,
2013-08-13 13:48:00,62.5,61.0,29.78,West,267,0.0,0.0,95,0.04,,,0.46,WeatherCatV1.15B25,2013-08-13 17:48:00,
2013-08-13 13:53:00,62.3,60.8,29.78,ENE,75,0.0,3.0,95,0.00,,,0.46,WeatherCatV1.15B25,2013-08-13 17:53:00,
2013-08-13 13:58:00,62.2,60.7,29.78,ENE,71,0.0,0.0,95,0.00,,,0.47,WeatherCatV1.15B25,2013-08-13 17:58:00,
2013-08-13 14:03:00,62.1,60.6,29.78,ENE,71,0.0,0.0,95,0.00,,,0.47,WeatherCatV1.15B25,2013-08-13 18:03:00,
2013-08-13 14:08:00,62.1,60.6,29.78,ENE,71,0.0,0.0,95,0.05,,,0.48,WeatherCatV1.15B25,2013-08-13 18:08:00,
2013-08-13 14:13:00,62.2,60.7,29.78,ENE,71,0.0,0.0,95,0.13,,,0.49,WeatherCatV1.15B25,2013-08-13 18:13:00,
2013-08-13 14:18:00,62.3,61.1,29.78,ENE,71,0.0,0.0,96,0.08,,,0.49,WeatherCatV1.15B25,2013-08-13 18:18:00,
2013-08-13 14:23:00,62.3,61.1,29.78,ENE,71,0.0,0.0,96,0.05,,,0.49,WeatherCatV1.15B25,2013-08-13 18:23:00,
2013-08-13 14:28:00,62.5,61.3,29.77,ENE,71,0.0,0.0,96,0.00,,,0.49,WeatherCatV1.15B25,2013-08-13 18:28:00,
2013-08-13 14:33:00,62.7,61.5,29.76,ENE,71,0.0,0.0,96,0.00,,,0.50,WeatherCatV1.15B25,2013-08-13 18:33:00,
2013-08-13 14:38:00,63.0,61.8,29.76,ENE,71,0.0,0.0,96,0.00,,,0.50,WeatherCatV1.15B25,2013-08-13 18:38:00,
2013-08-13 14:43:00,63.2,62.0,29.76,ENE,71,0.0,0.0,96,0.00,,,0.50,WeatherCatV1.15B25,2013-08-13 18:43:00,
2013-08-13 14:48:00,63.4,62.2,29.76,ENE,71,0.0,0.0,96,0.00,,,0.50,WeatherCatV1.15B25,2013-08-13 18:48:00,
2013-08-13 14:53:00,63.4,62.2,29.76,ENE,71,0.0,0.0,96,0.00,,,0.50,WeatherCatV1.15B25,2013-08-13 18:53:00,
2013-08-13 14:58:00,63.3,62.1,29.75,ENE,71,0.0,0.0,96,0.00,,,0.50,WeatherCatV1.15B25,2013-08-13 18:58:00,
2013-08-13 15:03:00,63.2,62.0,29.75,ENE,71,0.0,0.0,96,0.00,,,0.50,WeatherCatV1.15B25,2013-08-13 19:03:00,
2013-08-13 15:08:00,63.2,62.0,29.75,ENE,71,0.0,0.0,96,0.00,,,0.50,WeatherCatV1.15B25,2013-08-13 19:08:00,
2013-08-13 15:13:00,63.2,62.0,29.75,ENE,71,0.0,0.0,96,0.00,,,0.50,WeatherCatV1.15B25,2013-08-13 19:13:00,
2013-08-13 15:18:00,63.2,62.0,29.75,ENE,71,0.0,0.0,96,0.00,,,0.50,WeatherCatV1.15B25,2013-08-13 19:18:00,
2013-08-13 15:23:00,63.1,61.9,29.75,ENE,71,0.0,0.0,96,0.00,,,0.50,WeatherCatV1.15B25,2013-08-13 19:23:00,
2013-08-13 15:28:00,63.0,61.8,29.75,ENE,71,0.0,0.0,96,0.00,,,0.50,WeatherCatV1.15B25,2013-08-13 19:28:00,
2013-08-13 15:33:00,62.9,61.7,29.74,ENE,71,0.0,0.0,96,0.61,,,0.54,WeatherCatV1.15B25,2013-08-13 19:33:00,
2013-08-13 15:38:00,63.0,61.8,29.74,ENE,71,0.0,0.0,96,0.12,,,0.55,WeatherCatV1.15B25,2013-08-13 19:38:00,
2013-08-13 15:43:00,63.1,61.9,29.74,ENE,71,0.0,0.0,96,0.09,,,0.56,WeatherCatV1.15B25,2013-08-13 19:43:00,
2013-08-13 15:48:00,63.2,62.0,29.74,ENE,71,0.0,0.0,96,0.07,,,0.56,WeatherCatV1.15B25,2013-08-13 19:48:00,
2013-08-13 15:53:00,63.3,62.1,29.74,ENE,71,0.0,0.0,96,0.05,,,0.56,WeatherCatV1.15B25,2013-08-13 19:53:00,
2013-08-13 15:58:00,63.4,62.2,29.74,ENE,71,0.0,0.0,96,0.00,,,0.56,WeatherCatV1.15B25,2013-08-13 19:58:00,
2013-08-13 16:03:00,63.3,62.1,29.73,ENE,71,0.0,0.0,96,0.00,,,0.56,WeatherCatV1.15B25,2013-08-13 20:03:00,
2013-08-13 16:08:00,63.1,61.9,29.74,ENE,71,0.0,0.0,96,0.00,,,0.56,WeatherCatV1.15B25,2013-08-13 20:08:00,
2013-08-13 16:13:00,63.1,61.9,29.74,ENE,71,0.0,0.0,96,0.00,,,0.56,WeatherCatV1.15B25,2013-08-13 20:13:00,
2013-08-13 16:18:00,63.0,61.8,29.73,ENE,71,0.0,0.0,96,0.00,,,0.56,WeatherCatV1.15B25,2013-08-13 20:18:00,
2013-08-13 16:23:00,63.0,61.8,29.73,ENE,71,0.0,0.0,96,0.00,,,0.56,WeatherCatV1.15B25,2013-08-13 20:23:00,
2013-08-13 16:28:00,63.0,61.8,29.73,ENE,71,0.0,0.0,96,0.00,,,0.56,WeatherCatV1.15B25,2013-08-13 20:28:00,
2013-08-13 16:33:00,63.0,61.8,29.73,ENE,71,0.0,0.0,96,0.00,,,0.56,WeatherCatV1.15B25,2013-08-13 20:33:00,
2013-08-13 16:38:00,63.0,61.8,29.73,ENE,71,0.0,0.0,96,0.00,,,0.56,WeatherCatV1.15B25,2013-08-13 20:38:00,
2013-08-13 16:43:00,63.1,61.9,29.73,ENE,71,0.0,0.0,96,0.00,,,0.56,WeatherCatV1.15B25,2013-08-13 20:43:00,
2013-08-13 16:48:00,63.1,61.9,29.73,ENE,71,0.0,0.0,96,0.00,,,0.56,WeatherCatV1.15B25,2013-08-13 20:48:00,
2013-08-13 16:53:00,63.1,61.9,29.72,ENE,71,0.0,0.0,96,0.00,,,0.56,WeatherCatV1.15B25,2013-08-13 20:53:00,
2013-08-13 16:58:00,63.1,61.9,29.72,ENE,71,0.0,0.0,96,0.00,,,0.56,WeatherCatV1.15B25,2013-08-13 20:58:00,
2013-08-13 17:03:00,63.2,62.0,29.72,ENE,71,0.0,0.0,96,0.00,,,0.56,WeatherCatV1.15B25,2013-08-13 21:03:00,
2013-08-13 17:08:00,63.2,62.0,29.72,ENE,71,0.0,0.0,96,0.00,,,0.56,WeatherCatV1.15B25,2013-08-13 21:08:00,
2013-08-13 17:13:00,63.1,61.9,29.72,ENE,71,0.0,0.0,96,0.00,,,0.56,WeatherCatV1.15B25,2013-08-13 21:13:00,
2013-08-13 17:18:00,63.0,61.8,29.72,ENE,71,0.0,0.0,96,0.00,,,0.56,WeatherCatV1.15B25,2013-08-13 21:18:00,
2013-08-13 17:23:00,63.0,61.8,29.72,ENE,71,0.0,0.0,96,0.00,,,0.56,WeatherCatV1.15B25,2013-08-13 21:23:00,
2013-08-13 17:28:00,62.9,61.7,29.72,ENE,71,0.0,0.0,96,0.00,,,0.56,WeatherCatV1.15B25,2013-08-13 21:28:00,
2013-08-13 17:33:00,62.9,61.7,29.72,ENE,71,0.0,0.0,96,0.00,,,0.56,WeatherCatV1.15B25,2013-08-13 21:33:00,
2013-08-13 17:38:00,62.9,61.7,29.72,ENE,71,0.0,0.0,96,0.00,,,0.56,WeatherCatV1.15B25,2013-08-13 21:38:00,
2013-08-13 17:43:00,62.9,61.7,29.71,ENE,71,0.0,0.0,96,0.00,,,0.56,WeatherCatV1.15B25,2013-08-13 21:43:00,
2013-08-13 17:48:00,62.9,61.7,29.71,ENE,71,0.0,0.0,96,0.00,,,0.56,WeatherCatV1.15B25,2013-08-13 21:48:00,
2013-08-13 17:53:00,63.0,61.8,29.71,ENE,71,0.0,0.0,96,0.00,,,0.56,WeatherCatV1.15B25,2013-08-13 21:53:00,
2013-08-13 17:58:00,63.0,61.8,29.71,ENE,71,0.0,0.0,96,0.00,,,0.56,WeatherCatV1.15B25,2013-08-13 21:58:00,
2013-08-13 18:03:00,63.1,61.9,29.71,ENE,71,0.0,0.0,96,0.00,,,0.56,WeatherCatV1.15B25,2013-08-13 22:03:00,
2013-08-13 18:08:00,63.1,61.9,29.71,ENE,71,0.0,0.0,96,0.00,,,0.56,WeatherCatV1.15B25,2013-08-13 22:08:00,
2013-08-13 18:13:00,63.0,61.8,29.70,ENE,71,0.0,0.0,96,0.00,,,0.56,WeatherCatV1.15B25,2013-08-13 22:13:00,
2013-08-13 18:18:00,63.0,61.8,29.70,ENE,71,0.0,0.0,96,0.00,,,0.56,WeatherCatV1.15B25,2013-08-13 22:18:00,
2013-08-13 18:23:00,62.9,61.7,29.70,ENE,71,0.0,0.0,96,0.00,,,0.56,WeatherCatV1.15B25,2013-08-13 22:23:00,
2013-08-13 18:29:00,62.9,61.7,29.70,ENE,71,0.0,0.0,96,0.00,,,0.56,WeatherCatV1.15B25,2013-08-13 22:29:00,
2013-08-13 18:34:00,62.8,61.6,29.70,ENE,71,0.0,0.0,96,0.00,,,0.56,WeatherCatV1.15B25,2013-08-13 22:34:00,
2013-08-13 18:39:00,62.9,61.7,29.70,ENE,71,0.0,0.0,96,0.00,,,0.56,WeatherCatV1.15B25,2013-08-13 22:39:00,
2013-08-13 18:44:00,62.8,61.6,29.70,ENE,71,0.0,0.0,96,0.00,,,0.56,WeatherCatV1.15B25,2013-08-13 22:44:00,
2013-08-13 18:49:00,62.8,61.6,29.70,ENE,71,0.0,0.0,96,0.00,,,0.56,WeatherCatV1.15B25,2013-08-13 22:49:00,
2013-08-13 18:54:00,62.8,61.6,29.70,ENE,71,0.0,0.0,96,0.00,,,0.56,WeatherCatV1.15B25,2013-08-13 22:54:00,
2013-08-13 18:59:00,62.8,61.6,29.70,ENE,71,0.0,0.0,96,0.00,,,0.56,WeatherCatV1.15B25,2013-08-13 22:59:00,
2013-08-13 19:04:00,62.8,61.6,29.69,ENE,71,0.0,0.0,96,0.00,,,0.56,WeatherCatV1.15B25,2013-08-13 23:04:00,
2013-08-13 19:09:00,62.8,61.6,29.69,ENE,71,0.0,0.0,96,0.00,,,0.56,WeatherCatV1.15B25,2013-08-13 23:09:00,
2013-08-13 19:14:00,62.8,61.6,29.69,ENE,71,0.0,0.0,96,0.00,,,0.56,WeatherCatV1.15B25,2013-08-13 23:14:00,
2013-08-13 19:19:00,62.7,61.5,29.69,ENE,71,0.0,0.0,96,0.00,,,0.56,WeatherCatV1.15B25,2013-08-13 23:19:00,
2013-08-13 19:24:00,62.6,61.4,29.69,ENE,71,0.0,0.0,96,0.00,,,0.56,WeatherCatV1.15B25,2013-08-13 23:24:00,
2013-08-13 19:29:00,62.5,61.3,29.69,ENE,71,0.0,0.0,96,0.00,,,0.56,WeatherCatV1.15B25,2013-08-13 23:29:00,
2013-08-13 19:34:00,62.4,61.2,29.69,ENE,71,0.0,0.0,96,0.00,,,0.56,WeatherCatV1.15B25,2013-08-13 23:34:00,
2013-08-13 19:39:00,62.4,61.2,29.68,ENE,71,0.0,0.0,96,0.00,,,0.57,WeatherCatV1.15B25,2013-08-13 23:39:00,
2013-08-13 19:44:00,62.4,61.2,29.68,ENE,71,0.0,0.0,96,0.00,,,0.57,WeatherCatV1.15B25,2013-08-13 23:44:00,
2013-08-13 19:49:00,62.4,61.2,29.68,ENE,71,0.0,0.0,96,0.00,,,0.57,WeatherCatV1.15B25,2013-08-13 23:49:00,
2013-08-13 19:54:00,62.4,61.2,29.68,ENE,71,0.0,0.0,96,0.00,,,0.57,WeatherCatV1.15B25,2013-08-13 23:54:00,
2013-08-13 19:59:00,62.3,61.1,29.68,ENE,71,0.0,0.0,96,0.00,,,0.57,WeatherCatV1.15B25,2013-08-13 23:59:00,
2013-08-13 20:00:00,62.3,61.1,29.68,ENE,71,0.0,0.0,96,0.00,,,0.00,WeatherCatV1.15B25,2013-08-14 00:00:00,
2013-08-13 20:05:00,62.3,61.1,29.68,ENE,68,0.0,0.0,96,0.00,,,0.00,WeatherCatV1.15B25,2013-08-14 00:05:00,
2013-08-13 20:10:00,62.3,61.1,29.68,ENE,68,0.0,0.0,96,0.00,,,0.00,WeatherCatV1.15B25,2013-08-14 00:10:00,
2013-08-13 20:15:00,62.3,61.1,29.68,ENE,68,0.0,0.0,96,0.00,,,0.00,WeatherCatV1.15B25,2013-08-14 00:15:00,
2013-08-13 20:20:00,62.3,61.1,29.68,ENE,68,0.0,0.0,96,0.00,,,0.00,WeatherCatV1.15B25,2013-08-14 00:20:00,
2013-08-13 20:25:00,62.3,61.1,29.68,ENE,68,0.0,0.0,96,0.00,,,0.00,WeatherCatV1.15B25,2013-08-14 00:25:00,
2013-08-13 20:30:00,62.3,61.1,29.68,ENE,68,0.0,0.0,96,0.00,,,0.00,WeatherCatV1.15B25,2013-08-14 00:30:00,
2013-08-13 20:35:00,62.2,61.0,29.67,ENE,68,0.0,0.0,96,0.00,,,0.00,WeatherCatV1.15B25,2013-08-14 00:35:00,
2013-08-13 20:40:00,62.2,61.0,29.67,ENE,68,0.0,0.0,96,0.00,,,0.00,WeatherCatV1.15B25,2013-08-14 00:40:00,
2013-08-13 20:45:00,62.2,61.0,29.67,ENE,68,0.0,0.0,96,0.00,,,0.00,WeatherCatV1.15B25,2013-08-14 00:45:00,
2013-08-13 20:50:00,62.2,61.0,29.68,ENE,68,0.0,0.0,96,0.00,,,0.00,WeatherCatV1.15B25,2013-08-14 00:50:00,
2013-08-13 20:55:00,62.2,61.0,29.68,ENE,68,0.0,0.0,96,0.00,,,0.00,WeatherCatV1.15B25,2013-08-14 00:55:00,
2013-08-13 21:00:00,62.2,61.0,29.68,ENE,68,0.0,0.0,96,0.00,,,0.00,WeatherCatV1.15B25,2013-08-14 01:00:00,
2013-08-13 21:05:00,62.2,61.0,29.68,ENE,68,0.0,0.0,96,0.00,,,0.00,WeatherCatV1.15B25,2013-08-14 01:05:00,
2013-08-13 21:10:00,62.2,61.0,29.68,ENE,68,0.0,0.0,96,0.00,,,0.00,WeatherCatV1.15B25,2013-08-14 01:10:00,
2013-08-13 21:15:00,62.2,61.0,29.68,ENE,68,0.0,0.0,96,0.00,,,0.00,WeatherCatV1.15B25,2013-08-14 01:15:00,
2013-08-13 21:20:00,62.3,61.1,29.68,ENE,68,0.0,0.0,96,0.15,,,0.00,WeatherCatV1.15B25,2013-08-14 01:20:00,
2013-08-13 21:25:00,62.3,61.1,29.68,ENE,68,0.0,0.0,96,0.15,,,0.00,WeatherCatV1.15B25,2013-08-14 01:25:00,
2013-08-13 21:30:00,62.3,61.1,29.68,ENE,68,0.0,0.0,96,0.15,,,0.00,WeatherCatV1.15B25,2013-08-14 01:30:00,
2013-08-13 21:35:00,62.2,61.0,29.68,ENE,68,0.0,0.0,96,0.42,,,0.00,WeatherCatV1.15B25,2013-08-14 01:35:00,
2013-08-13 21:40:00,62.2,61.0,29.68,ENE,68,0.0,0.0,96,0.42,,,0.00,WeatherCatV1.15B25,2013-08-14 01:40:00,
2013-08-13 21:45:00,62.2,61.0,29.68,ENE,68,0.0,0.0,96,0.42,,,0.00,WeatherCatV1.15B25,2013-08-14 01:45:00,
2013-08-13 21:50:00,62.1,61.2,29.67,ENE,68,0.0,0.0,97,0.00,,,0.00,WeatherCatV1.15B25,2013-08-14 01:50:00,
2013-08-13 21:55:00,62.1,61.2,29.67,ENE,68,0.0,0.0,97,0.00,,,0.00,WeatherCatV1.15B25,2013-08-14 01:55:00,
2013-08-13 22:00:00,62.1,61.2,29.67,ENE,68,0.0,0.0,97,0.00,,,0.00,WeatherCatV1.15B25,2013-08-14 02:00:00,
2013-08-13 22:05:00,62.1,61.2,29.66,ENE,68,0.0,0.0,97,0.00,,,0.00,WeatherCatV1.15B25,2013-08-14 02:05:00,
2013-08-13 22:10:00,62.1,61.2,29.66,ENE,68,0.0,0.0,97,0.00,,,0.00,WeatherCatV1.15B25,2013-08-14 02:10:00,
2013-08-13 22:15:00,62.1,61.2,29.66,ENE,68,0.0,0.0,97,0.00,,,0.00,WeatherCatV1.15B25,2013-08-14 02:15:00,
2013-08-13 22:20:00,62.1,61.2,29.67,ENE,68,0.0,0.0,97,0.00,,,0.00,WeatherCatV1.15B25,2013-08-14 02:20:00,
2013-08-13 22:25:00,62.1,61.2,29.67,ENE,68,0.0,0.0,97,0.00,,,0.00,WeatherCatV1.15B25,2013-08-14 02:25:00,
2013-08-13 22:30:00,62.1,61.2,29.67,ENE,68,0.0,0.0,97,0.00,,,0.00,WeatherCatV1.15B25,2013-08-14 02:30:00,
2013-08-13 22:35:00,62.0,61.1,29.67,ENE,68,0.0,0.0,97,0.00,,,0.00,WeatherCatV1.15B25,2013-08-14 02:35:00,
2013-08-13 22:40:00,62.0,61.1,29.67,ENE,68,0.0,0.0,97,0.00,,,0.00,WeatherCatV1.15B25,2013-08-14 02:40:00,
2013-08-13 22:45:00,62.0,61.1,29.67,ENE,68,0.0,0.0,97,0.00,,,0.00,WeatherCatV1.15B25,2013-08-14 02:45:00,
2013-08-13 22:50:00,62.0,61.1,29.67,ENE,68,0.0,0.0,97,0.00,,,0.00,WeatherCatV1.15B25,2013-08-14 02:50:00,
2013-08-13 22:55:00,62.0,61.1,29.67,ENE,68,0.0,0.0,97,0.00,,,0.00,WeatherCatV1.15B25,2013-08-14 02:55:00,
2013-08-13 23:00:00,62.0,61.1,29.67,ENE,68,0.0,0.0,97,0.00,,,0.00,WeatherCatV1.15B25,2013-08-14 03:00:00,
2013-08-13 23:05:00,62.0,61.1,29.68,ENE,68,0.0,0.0,97,0.00,,,0.00,WeatherCatV1.15B25,2013-08-14 03:05:00,
2013-08-13 23:10:00,62.0,61.1,29.68,ENE,68,0.0,0.0,97,0.00,,,0.00,WeatherCatV1.15B25,2013-08-14 03:10:00,
2013-08-13 23:15:00,62.0,61.1,29.68,ENE,68,0.0,0.0,97,0.00,,,0.00,WeatherCatV1.15B25,2013-08-14 03:15:00,
2013-08-13 23:20:00,62.0,61.1,29.68,ENE,68,0.0,0.0,97,0.00,,,0.00,WeatherCatV1.15B25,2013-08-14 03:20:00,
2013-08-13 23:25:00,62.0,61.1,29.68,ENE,68,0.0,0.0,97,0.00,,,0.00,WeatherCatV1.15B25,2013-08-14 03:25:00,
2013-08-13 23:30:00,62.0,61.1,29.68,ENE,68,0.0,0.0,97,0.00,,,0.00,WeatherCatV1.15B25,2013-08-14 03:30:00,
2013-08-13 23:35:00,62.0,61.1,29.67,ENE,68,0.0,0.0,97,0.00,,,0.00,WeatherCatV1.15B25,2013-08-14 03:35:00,
2013-08-13 23:40:00,62.0,61.1,29.67,ENE,68,0.0,0.0,97,0.00,,,0.00,WeatherCatV1.15B25,2013-08-14 03:40:00,
2013-08-13 23:45:00,62.0,61.1,29.67,ENE,68,0.0,0.0,97,0.00,,,0.00,WeatherCatV1.15B25,2013-08-14 03:45:00,
2013-08-13 23:50:00,61.9,61.0,29.67,ENE,68,0.0,0.0,97,0.00,,,0.00,WeatherCatV1.15B25,2013-08-14 03:50:00,
2013-08-13 23:55:00,61.9,61.0,29.67,ENE,68,0.0,0.0,97,0.00,,,0.00,WeatherCatV1.15B25,2013-08-14 03:55:00,